Reidsville, NC

10:33 AM EST on November 23, 2017 (GMT -0500)
Reidsville

Weather History for KSIF - August, 2013

Change the Weather History Date:

Wednesday, August 21, 2013

  Actual Average (KGSO) Record (KGSO)
Temperature  
Mean Temperature 74 °F -  
Max Temperature 83 °F 84 °F 100 °F (1983)
Min Temperature 66 °F 65 °F 52 °F (1918)
Cooling Degree Days 10    
Growing Degree Days 24 (Base 50)    
Moisture  
Dew Point 71 °F    
Average Humidity 91    
Maximum Humidity 100    
Minimum Humidity 70    
Precipitation  
Precipitation 0.00 in - - ()
Sea Level Pressure  
Sea Level Pressure 30.19 in    
Wind  
Wind Speed 1 mph (SSW)    
Max Wind Speed 6 mph    
Max Gust Speed -    
Visibility 5 miles    
Events Fog , Rain    
Averages and records for this station are not official NWS values.
T = Trace of Precipitation, MM = Missing Value Source: NWS Daily Summary

Daily Weather History Graph

Daily Weather History Graph

Search for Another Location

Airport or City:

Trip Planner

Search our weather history database for the weather conditions in past years. The results will help you decide how hot, cold, wet, or windy it might be!

Date:

Astronomy

Aug. 21, 2013 Rise Set
Actual Time 6:42 AM EDT 8:02 PM EDT
Civil Twilight 6:15 AM EDT 8:29 PM EDT
Nautical Twilight 5:42 AM EDT 9:01 PM EDT
Astronomical Twilight 5:09 AM EDT 9:34 PM EDT
Moon 8:13 PM EDT (8/21) 7:17 AM EDT (8/21)
Length of Visible Light 14h 13m
Length of Day
13h 19m
Full, 100% of the Moon is Illuminated
Aug 21
Full
Aug 28
Last Quarter
Sep 5
New
Sep 12
First Quarter
Sep 19
Full

Hourly Weather History & Observations

Time (EDT) Temp. Heat Index Dew Point Humidity Pressure Visibility Wind Dir Wind Speed Gust Speed Precip Events Conditions
12:15 AM 67.3 °F - 67.3 °F 100% 30.21 in 4.0 mi Calm Calm - N/A   Clear
12:35 AM 66.2 °F - 66.2 °F 100% 30.21 in 3.0 mi Calm Calm - N/A   Clear
12:55 AM 66.2 °F - 66.2 °F 100% 30.21 in 2.5 mi Calm Calm - N/A   Mostly Cloudy
1:15 AM 66.6 °F - 66.6 °F 100% 30.21 in 0.8 mi Calm Calm - N/A   Overcast
1:35 AM 66.7 °F - 66.7 °F 100% 30.20 in 0.2 mi Calm Calm - N/A Fog Fog
1:55 AM 66.6 °F - 66.6 °F 100% 30.20 in 0.5 mi Calm Calm - N/A Fog Fog
2:15 AM 66.7 °F - 66.7 °F 100% 30.19 in 4.0 mi Calm Calm - N/A   Mostly Cloudy
2:35 AM 67.3 °F - 67.3 °F 100% 30.19 in 4.0 mi Calm Calm - N/A   Scattered Clouds
2:55 AM 67.5 °F - 67.5 °F 100% 30.19 in 4.0 mi Calm Calm - N/A   Mostly Cloudy
3:15 AM 67.5 °F - 67.5 °F 100% 30.19 in 1.8 mi Calm Calm - N/A   Overcast
3:35 AM 67.3 °F - 67.3 °F 100% 30.19 in 0.5 mi Calm Calm - N/A Fog Fog
3:55 AM 67.3 °F - 67.3 °F 100% 30.19 in 0.5 mi Calm Calm - N/A Fog Fog
4:15 AM 67.3 °F - 67.3 °F 100% 30.19 in 1.8 mi Calm Calm - N/A   Overcast
4:35 AM 67.6 °F - 67.6 °F 100% 30.19 in 3.0 mi Calm Calm - N/A   Overcast
4:55 AM 68.0 °F - 68.0 °F 100% 30.19 in 2.0 mi Calm Calm - N/A   Overcast
5:15 AM 67.8 °F - 67.8 °F 100% 30.19 in 1.0 mi Calm Calm - N/A   Overcast
5:35 AM 67.6 °F - 67.6 °F 100% 30.20 in 0.8 mi Calm Calm - N/A   Overcast
5:55 AM 67.8 °F - 67.8 °F 100% 30.20 in 4.0 mi Calm Calm - N/A   Mostly Cloudy
6:15 AM 68.0 °F - 68.0 °F 100% 30.20 in 3.0 mi Calm Calm - N/A   Overcast
6:35 AM 67.6 °F - 67.6 °F 100% 30.20 in 4.0 mi Calm Calm - N/A   Overcast
6:55 AM 67.8 °F - 67.8 °F 100% 30.21 in 1.5 mi Calm Calm - N/A   Overcast
7:15 AM 68.0 °F - 68.0 °F 100% 30.21 in 0.2 mi Calm Calm - N/A Fog Fog
7:35 AM 68.5 °F - 68.5 °F 100% 30.23 in 3.0 mi Calm Calm - N/A   Scattered Clouds
7:55 AM 69.4 °F - 69.4 °F 100% 30.22 in 4.0 mi Calm Calm - N/A   Clear
8:15 AM 69.8 °F - 69.8 °F 100% 30.23 in 5.0 mi Calm Calm - N/A   Scattered Clouds
8:35 AM 69.8 °F - 69.8 °F 100% 30.24 in 5.0 mi Calm Calm - N/A   Mostly Cloudy
8:55 AM 70.3 °F - 70.3 °F 100% 30.24 in 5.0 mi Calm Calm - N/A   Mostly Cloudy
9:15 AM 70.9 °F - 70.9 °F 100% 30.25 in 4.0 mi Calm Calm - N/A Rain Light Rain
9:35 AM 71.2 °F - 71.2 °F 100% 30.24 in 5.0 mi Calm Calm - N/A   Mostly Cloudy
9:55 AM 72.1 °F - 72.1 °F 100% 30.24 in 5.0 mi Calm Calm - N/A   Mostly Cloudy
10:15 AM 73.4 °F - 72.9 °F 98% 30.24 in 5.0 mi Calm Calm - N/A   Scattered Clouds
10:35 AM 74.5 °F - 73.0 °F 95% 30.24 in 7.0 mi Calm Calm - N/A   Mostly Cloudy
10:55 AM 75.2 °F - 71.6 °F 89% 30.25 in 7.0 mi Calm Calm - N/A   Mostly Cloudy
11:15 AM 75.7 °F - 71.4 °F 86% 30.25 in 4.0 mi Calm Calm - N/A Rain Light Rain
11:35 AM 76.6 °F - 71.2 °F 83% 30.25 in 7.0 mi Calm Calm - N/A   Scattered Clouds
11:55 AM 77.9 °F - 71.6 °F 81% 30.24 in 5.0 mi SW 4.6 mph - N/A   Haze
12:15 PM 79.2 °F - 71.8 °F 78% 30.24 in 5.0 mi Calm Calm - N/A   Haze
12:35 PM 79.3 °F - 72.0 °F 78% 30.23 in 7.0 mi SSW 3.5 mph - N/A   Scattered Clouds
12:55 PM 80.6 °F 85.0 °F 72.7 °F 77% 30.23 in 7.0 mi SW 5.8 mph - N/A   Scattered Clouds
1:15 PM 81.5 °F 86.3 °F 72.3 °F 74% 30.22 in 7.0 mi SW 3.5 mph - N/A   Mostly Cloudy
1:35 PM 81.5 °F 86.1 °F 72.0 °F 73% 30.21 in 7.0 mi SSW 5.8 mph - N/A   Mostly Cloudy
1:55 PM 81.3 °F 85.6 °F 71.4 °F 72% 30.20 in 7.0 mi Calm Calm - N/A   Scattered Clouds
2:15 PM 81.5 °F 85.9 °F 71.6 °F 72% 30.21 in 7.0 mi SW 4.6 mph - N/A   Mostly Cloudy
2:35 PM 81.5 °F 86.1 °F 72.0 °F 73% 30.20 in 7.0 mi WSW 4.6 mph - N/A   Scattered Clouds
2:55 PM 81.1 °F 85.6 °F 72.0 °F 74% 30.19 in 7.0 mi SW 4.6 mph - N/A   Clear
3:15 PM 81.9 °F 86.6 °F 72.0 °F 72% 30.16 in 7.0 mi SSW 4.6 mph - N/A   Clear
3:35 PM 83.3 °F 89.0 °F 72.5 °F 70% 30.16 in 7.0 mi SW 3.5 mph - N/A   Scattered Clouds
3:55 PM 81.7 °F 86.5 °F 72.3 °F 73% 30.16 in 7.0 mi SSW 5.8 mph - N/A   Mostly Cloudy
4:15 PM 81.5 °F 86.5 °F 72.9 °F 75% 30.16 in 7.0 mi South 3.5 mph - N/A   Overcast
4:35 PM 82.9 °F 89.1 °F 73.6 °F 73% 30.17 in 7.0 mi SSE 3.5 mph - N/A   Scattered Clouds
4:55 PM 81.7 °F 86.9 °F 73.0 °F 75% 30.16 in 5.0 mi South 5.8 mph - N/A   Haze
5:15 PM 81.1 °F 86.0 °F 73.0 °F 76% 30.17 in 5.0 mi South 4.6 mph - N/A   Haze
5:35 PM 81.1 °F 86.2 °F 73.4 °F 77% 30.16 in 7.0 mi SSE 4.6 mph - N/A   Mostly Cloudy
5:55 PM 79.7 °F - 73.2 °F 80% 30.15 in 7.0 mi SSE 3.5 mph - N/A   Scattered Clouds
6:15 PM 79.0 °F - 73.0 °F 82% 30.13 in 7.0 mi SW 3.5 mph - N/A   Clear
6:35 PM 78.6 °F - 73.4 °F 84% 30.14 in 7.0 mi SSW 5.8 mph - N/A   Clear
6:55 PM 78.1 °F - 73.2 °F 85% 30.14 in 7.0 mi SW 3.5 mph - N/A   Clear
7:15 PM 77.2 °F - 73.0 °F 87% 30.13 in 4.0 mi Calm Calm - N/A   Clear
7:35 PM 76.5 °F - 72.9 °F 89% 30.12 in 5.0 mi Calm Calm - N/A   Clear
7:55 PM 75.4 °F - 72.7 °F 91% 30.13 in 5.0 mi Calm Calm - N/A   Clear
8:15 PM 73.6 °F - 72.1 °F 95% 30.13 in 5.0 mi Calm Calm - N/A   Clear
8:35 PM 73.9 °F - 73.2 °F 98% 30.13 in 7.0 mi South 3.5 mph - N/A   Clear
8:55 PM 73.0 °F - 71.4 °F 95% 30.14 in 7.0 mi Calm Calm - N/A   Clear
9:15 PM 72.1 °F - 71.2 °F 97% 30.15 in 5.0 mi Calm Calm - N/A   Scattered Clouds
9:35 PM 71.8 °F - 71.2 °F 98% 30.16 in 4.0 mi Calm Calm - N/A   Clear
9:55 PM 72.5 °F - 71.8 °F 98% 30.16 in 7.0 mi Calm Calm - N/A   Scattered Clouds
10:15 PM 73.9 °F - 73.4 °F 98% 30.17 in 7.0 mi South 3.5 mph - N/A   Mostly Cloudy
10:35 PM 73.6 °F - 72.7 °F 97% 30.17 in 7.0 mi Calm Calm - N/A   Mostly Cloudy
10:55 PM 73.9 °F - 73.0 °F 97% 30.18 in 7.0 mi Calm Calm - N/A   Clear
11:15 PM 73.6 °F - 72.7 °F 97% 30.18 in 10.0 mi Calm Calm - N/A Rain Light Rain
11:35 PM 72.7 °F - 72.0 °F 98% 30.17 in 4.0 mi Calm Calm - N/A Rain Light Rain
11:55 PM 72.3 °F - 71.6 °F 98% 30.17 in 4.0 mi Calm Calm - N/A   Scattered Clouds